Leonardtown, MD

7:37 AM EDT on April 23, 2017 (GMT -0400)
Leonardtown

Weather History for K2W6 - March, 2014

Change the Weather History Date:

Friday, March 14, 2014

  Actual Average (KNHK) Record (KNHK)
Temperature  
Mean Temperature 40 °F -  
Max Temperature 57 °F 55 °F 80 °F (2007)
Min Temperature 23 °F 36 °F 19 °F (2014)
Degree Days  
Heating Degree Days 25    
Moisture  
Dew Point 15 °F    
Average Humidity 39    
Maximum Humidity 63    
Minimum Humidity 19    
Precipitation  
Precipitation 0.00 in - - ()
Sea Level Pressure  
Sea Level Pressure 30.16 in    
Wind  
Wind Speed 4 mph (South)    
Max Wind Speed 16 mph    
Max Gust Speed 23 mph    
Visibility 10 miles    
Events      
Averages and records for this station are not official NWS values.
T = Trace of Precipitation, MM = Missing Value Source: NWS Daily Summary

Daily Weather History Graph

Daily Weather History Graph

Search for Another Location

Airport or City:

Trip Planner

Search our weather history database for the weather conditions in past years. The results will help you decide how hot, cold, wet, or windy it might be!

Date:

Astronomy

Mar. 14, 2014 Rise Set
Actual Time 7:18 AM EDT 7:12 PM EDT
Civil Twilight 6:52 AM EDT 7:38 PM EDT
Nautical Twilight 6:21 AM EDT 8:09 PM EDT
Astronomical Twilight 5:51 AM EDT 8:40 PM EDT
Moon 5:33 PM EDT (3/14) 5:56 AM EDT (3/14)
Length of Visible Light 12h 46m
Length of Day
11h 53m
Waxing Gibbous, 96% of the Moon is Illuminated
Mar 14
Waxing Gibbous
Mar 16
Full
Mar 23
Last Quarter
Mar 30
New
Apr 7
First Quarter

Hourly Weather History & Observations

Time (EDT) Temp. Windchill Dew Point Humidity Pressure Visibility Wind Dir Wind Speed Gust Speed Precip Events Conditions
12:01 AM 30.2 °F - 3.2 °F 32% 30.22 in 10.0 mi Calm Calm - N/A   Clear
12:21 AM 28.4 °F - 3.2 °F 34% 30.22 in 10.0 mi Calm Calm - N/A   Clear
12:41 AM 28.4 °F - 3.2 °F 34% 30.22 in 10.0 mi Calm Calm - N/A   Clear
1:01 AM 24.8 °F - 8.6 °F 50% 30.22 in 10.0 mi North - - N/A   Clear
1:21 AM 26.6 °F - 6.8 °F 43% - 10.0 mi North - - N/A   Clear
1:41 AM 26.6 °F - 5.0 °F 40% 30.22 in 10.0 mi Calm Calm - N/A   Clear
2:01 AM 23.0 °F - 8.6 °F 54% 30.23 in 10.0 mi Calm Calm - N/A   Clear
2:21 AM 23.0 °F - 8.6 °F 54% 30.23 in 10.0 mi Calm Calm - N/A   Clear
2:41 AM 24.8 °F - 10.4 °F 54% 30.23 in 10.0 mi Calm Calm - N/A   Clear
3:01 AM 23.0 °F - 10.4 °F 59% 30.23 in 10.0 mi Calm Calm - N/A   Clear
3:21 AM 23.0 °F - 10.4 °F 59% 30.24 in - Calm Calm - N/A   Clear
3:41 AM 23.0 °F - 10.4 °F 59% 30.24 in - North - - N/A   Clear
4:01 AM 23.0 °F - 10.4 °F 59% 30.24 in 10.0 mi Calm Calm - N/A   Clear
4:21 AM 23.0 °F - 10.4 °F 59% - 10.0 mi Calm Calm - N/A   Scattered Clouds
4:41 AM 23.0 °F - 12.2 °F 63% 30.24 in 10.0 mi Calm Calm - N/A   Overcast
5:01 AM 23.0 °F 18.4 °F 12.2 °F 63% 30.25 in 10.0 mi SSW 3.5 mph - N/A   Overcast
5:21 AM 26.6 °F - 10.4 °F 51% 30.25 in 10.0 mi Calm Calm - N/A   Overcast
5:41 AM 28.4 °F 24.6 °F 12.2 °F 51% 30.25 in 10.0 mi South 3.5 mph - N/A   Overcast
6:01 AM 28.4 °F - 14.0 °F 55% 30.25 in 10.0 mi Calm Calm - N/A   Overcast
6:21 AM 28.4 °F - 14.0 °F 55% 30.26 in 10.0 mi Calm Calm - N/A   Overcast
6:41 AM 28.4 °F - 14.0 °F 55% 30.26 in 10.0 mi Calm Calm - N/A   Overcast
7:01 AM 28.4 °F 24.6 °F 15.8 °F 59% 30.27 in 10.0 mi SSW 3.5 mph - N/A   Overcast
7:21 AM 30.2 °F - 15.8 °F 55% 30.27 in 10.0 mi Calm Calm - N/A   Overcast
7:41 AM 30.2 °F - 14.0 °F 51% 30.27 in 10.0 mi Calm Calm - N/A   Overcast
8:01 AM 30.2 °F 26.7 °F 14.0 °F 51% 30.27 in 10.0 mi South 3.5 mph - N/A   Overcast
8:22 AM 32.0 °F 27.5 °F 14.0 °F 48% 30.28 in 10.0 mi South 4.6 mph - N/A   Mostly Cloudy
8:42 AM 32.0 °F 26.4 °F 14.0 °F 48% 30.29 in 10.0 mi South 5.8 mph - N/A   Scattered Clouds
9:02 AM 32.0 °F 25.6 °F 14.0 °F 48% 30.29 in 10.0 mi South 6.9 mph - N/A   Clear
9:22 AM 33.8 °F 27.0 °F 12.2 °F 41% 30.29 in 10.0 mi South 8.1 mph - N/A   Clear
9:42 AM 35.6 °F 27.5 °F 10.4 °F 35% 30.29 in 10.0 mi SSW 11.5 mph 17.3 mph N/A   Scattered Clouds
10:02 AM 35.6 °F 27.5 °F 10.4 °F 35% 30.29 in 10.0 mi South 11.5 mph 17.3 mph N/A   Overcast
10:22 AM 35.6 °F 29.2 °F 10.4 °F 35% 30.29 in 10.0 mi South 8.1 mph 17.3 mph N/A   Overcast
10:42 AM 35.6 °F 28.6 °F 10.4 °F 35% 30.28 in 10.0 mi South 9.2 mph - N/A   Overcast
11:02 AM 37.4 °F 31.4 °F 12.2 °F 36% 30.27 in 10.0 mi SSW 8.1 mph - N/A   Overcast
11:22 AM 39.2 °F 34.2 °F 12.2 °F 33% 30.26 in 10.0 mi South 6.9 mph - N/A   Overcast
11:42 AM 42.8 °F 38.6 °F 12.2 °F 29% 30.25 in 10.0 mi SSW 6.9 mph - N/A   Mostly Cloudy
12:02 PM 42.8 °F 35.4 °F 10.4 °F 27% 30.24 in 10.0 mi SSW 15.0 mph - N/A   Scattered Clouds
12:22 PM 44.6 °F 38.4 °F 10.4 °F 25% 30.24 in 10.0 mi SW 12.7 mph - N/A   Clear
12:42 PM 46.4 °F 41.5 °F 10.4 °F 23% 30.23 in 10.0 mi South 10.4 mph 16.1 mph N/A   Clear
1:02 PM 46.4 °F 41.9 °F 10.4 °F 23% 30.22 in 10.0 mi South 9.2 mph 16.1 mph N/A   Clear
1:22 PM 50.0 °F - 12.2 °F 22% 30.20 in 10.0 mi SSW 12.7 mph 17.3 mph N/A   Clear
1:42 PM 50.0 °F - 10.4 °F 20% 30.19 in 10.0 mi SSW 12.7 mph 18.4 mph N/A   Clear
2:02 PM 51.8 °F - 12.2 °F 21% 30.17 in 10.0 mi South 6.9 mph - N/A   Clear
2:22 PM 51.8 °F - 12.2 °F 21% 30.16 in 10.0 mi South 9.2 mph 21.9 mph N/A   Clear
2:42 PM 53.6 °F - 12.2 °F 19% 30.14 in 10.0 mi South 9.2 mph 23.0 mph N/A   Clear
3:02 PM 53.6 °F - 12.2 °F 19% 30.14 in 10.0 mi South 11.5 mph 20.7 mph N/A   Clear
3:22 PM 53.6 °F - 14.0 °F 21% 30.12 in 10.0 mi SW 10.4 mph 19.6 mph N/A   Clear
3:42 PM 55.4 °F - 14.0 °F 20% 30.11 in 10.0 mi South 16.1 mph 21.9 mph N/A   Clear
4:02 PM 55.4 °F - 15.8 °F 21% 30.09 in 10.0 mi SSW 6.9 mph 18.4 mph N/A   Clear
4:22 PM 55.4 °F - 17.6 °F 23% 30.08 in 10.0 mi South 8.1 mph 18.4 mph N/A   Clear
4:42 PM 55.4 °F - 15.8 °F 21% 30.06 in 10.0 mi South 11.5 mph 17.3 mph N/A   Clear
5:03 PM 55.4 °F - 15.8 °F 21% 30.06 in 10.0 mi South 6.9 mph 20.7 mph N/A   Clear
5:23 PM 57.2 °F - 17.6 °F 21% 30.05 in 10.0 mi South 12.7 mph 17.3 mph N/A   Clear
5:43 PM 53.6 °F - 23.0 °F 30% 30.04 in 10.0 mi SE 10.4 mph - N/A   Clear
6:03 PM 50.0 °F - 24.8 °F 37% 30.04 in 10.0 mi SE 10.4 mph - N/A   Clear
6:23 PM 50.0 °F - 26.6 °F 40% 30.04 in 10.0 mi SSE 8.1 mph - N/A   Clear
6:43 PM 48.2 °F - 26.6 °F 43% 30.03 in 10.0 mi SSE 6.9 mph - N/A   Clear
7:03 PM 46.4 °F 41.9 °F 26.6 °F 46% 30.03 in 10.0 mi SE 9.2 mph - N/A   Clear
7:23 PM 46.4 °F 44.3 °F 26.6 °F 46% 30.03 in 10.0 mi SE 4.6 mph - N/A   Clear
7:43 PM 44.6 °F 41.4 °F 26.6 °F 49% 30.03 in 10.0 mi SSE 5.8 mph - N/A   Clear
8:03 PM 46.4 °F 42.9 °F 26.6 °F 46% 30.02 in 10.0 mi SSE 6.9 mph - N/A   Clear
8:23 PM 46.4 °F 43.5 °F 28.4 °F 50% 30.02 in 10.0 mi SSE 5.8 mph - N/A   Clear
8:43 PM 44.6 °F 43.1 °F 28.4 °F 53% 30.01 in 10.0 mi SSE 3.5 mph - N/A   Clear
9:03 PM 46.4 °F 42.9 °F 26.6 °F 46% 30.01 in 10.0 mi South 6.9 mph - N/A   Clear
9:23 PM 46.4 °F 43.5 °F 26.6 °F 46% 30.00 in 10.0 mi SSE 5.8 mph - N/A   Clear
9:43 PM 48.2 °F - 23.0 °F 37% 29.99 in 10.0 mi South 5.8 mph - N/A   Clear
10:03 PM 50.0 °F - 19.4 °F 30% 30.00 in 10.0 mi SSW 11.5 mph 19.6 mph N/A   Clear
10:23 PM 50.0 °F - 19.4 °F 30% 30.00 in 10.0 mi SSW 10.4 mph - N/A   Clear
10:43 PM 51.8 °F - 17.6 °F 26% 29.99 in 10.0 mi SSW 9.2 mph - N/A   Clear
11:03 PM 51.8 °F - 17.6 °F 26% 29.98 in 10.0 mi SSW 10.4 mph 18.4 mph N/A   Clear
11:23 PM 51.8 °F - 17.6 °F 26% 29.97 in 10.0 mi SSW 10.4 mph 16.1 mph N/A   Clear
11:43 PM 51.8 °F - 17.6 °F 26% 29.96 in 10.0 mi SSW 10.4 mph 17.3 mph N/A   Clear